EST,Max TemperatureF,Mean TemperatureF,Min TemperatureF,Max Dew PointF,MeanDew PointF,Min DewpointF,Max Humidity, Mean Humidity, Min Humidity, Max Sea Level PressureIn, Mean Sea Level PressureIn, Min Sea Level PressureIn, Max VisibilityMiles, Mean VisibilityMiles, Min VisibilityMiles, Max Wind SpeedMPH, Mean Wind SpeedMPH, Max Gust SpeedMPH,PrecipitationIn, CloudCover, Events, WindDirDegrees
2012-1-1,66,47,28,50,37,25,100,72,44,30.14,29.99,29.81,10,10,6,26,6,37,0.04,2,Rain,249
2012-1-2,46,36,26,23,15,9,63,46,29,30.05,29.99,29.94,10,10,3,21,9,28,0.00,2,,293
2012-1-3,32,25,18,11,7,3,63,47,31,30.32,30.17,30.05,10,10,10,24,9,33,0.00,2,,294
2012-1-4,42,29,16,13,10,8,74,50,25,30.35,30.21,30.04,10,10,10,15,6,18,0.00,1,,221
2012-1-5,53,40,27,25,21,14,72,50,28,30.08,30.04,30.01,10,10,10,15,5,20,0.00,0,,252
2012-1-6,66,47,28,28,25,23,78,50,22,30.06,29.99,29.93,10,10,10,15,6,20,0.00,0,,215
2012-1-7,67,50,33,44,35,27,82,61,39,30.05,29.95,29.91,10,10,10,18,5,24,0.00,2,,255
2012-1-8,56,45,34,43,33,25,82,56,30,30.26,30.20,30.06,10,10,10,10,2,14,0.02,6,Rain,29
2012-1-9,45,41,37,43,38,36,100,96,92,30.27,30.18,30.06,10,5,0,10,3,15,0.10,8,Fog-Rain,42
2012-1-10,58,47,36,40,36,28,100,67,33,30.11,30.06,29.99,10,5,0,10,3,16,0.00,3,Fog,285
2012-1-11,45,41,37,45,41,34,100,88,76,30.00,29.74,29.51,10,7,2,23,6,35,1.23,8,Rain,51
2012-1-12,58,47,36,46,41,37,100,86,71,29.62,29.56,29.45,10,7,1,22,7,23,0.00,5,,215
2012-1-13,52,40,27,34,17,13,77,57,37,30.04,29.83,29.50,10,10,10,31,14,41,0.00,2,,265
2012-1-14,41,32,22,30,18,15,82,60,37,30.18,30.11,30.05,10,10,10,17,7,22,0.00,3,,250
2012-1-15,41,32,22,30,23,18,92,68,44,30.55,30.36,30.12,10,10,10,13,3,17,0.00,3,,355
2012-1-16,46,33,19,31,23,17,91,66,41,30.58,30.46,30.28,10,10,10,16,5,24,T,2,,207
2012-1-17,62,53,43,54,44,31,100,79,58,30.25,30.01,29.82,10,10,10,29,12,40,0.18,6,Rain,219
2012-1-18,56,43,30,54,30,16,93,65,36,30.14,29.99,29.82,10,10,10,21,11,26,0.03,3,Rain,324
2012-1-19,45,33,20,27,20,14,84,62,40,30.22,30.12,30.04,10,10,10,16,5,20,0.00,1,,217
2012-1-20,55,41,27,38,31,25,92,64,35,30.17,30.12,30.04,10,9,3,12,5,15,0.14,4,Rain,90
2012-1-21,47,41,35,45,38,31,100,93,85,30.23,29.99,29.86,10,6,1,20,5,25,0.22,8,Rain,21
2012-1-22,35,33,31,34,30,27,100,89,78,30.39,30.33,30.23,10,7,2,18,7,23,0.00,7,,45
2012-1-23,43,38,33,43,36,32,100,96,92,30.32,30.13,30.01,10,4,1,12,4,15,0.03,8,Rain,242
2012-1-24,61,48,35,45,41,34,100,71,42,30.23,30.11,30.01,10,7,0,13,5,26,0.00,4,Fog,250
2012-1-25,59,44,28,37,33,27,100,67,33,30.34,30.25,30.18,10,10,10,10,1,14,0.00,0,,143
2012-1-26,68,52,35,57,47,33,92,78,63,30.17,29.97,29.70,10,10,8,20,4,32,0.00,5,,209
2012-1-27,65,51,37,59,47,30,90,65,39,30.03,29.71,29.55,10,10,10,24,11,32,T,4,Rain,245
2012-1-28,60,43,26,34,28,16,100,67,33,30.23,30.08,30.00,10,10,8,21,7,28,0.00,1,,270
2012-1-29,50,36,22,22,14,8,74,46,18,30.36,30.26,30.20,10,10,10,17,7,22,0.00,0,,237
2012-1-30,57,42,26,24,19,15,68,46,23,30.41,30.32,30.22,10,10,10,15,5,20,0.00,0,,229
2012-1-31,67,50,32,31,26,22,66,45,24,30.34,30.27,30.19,10,10,9,18,7,24,0.00,0,,217